STARLINK-4791 (53936 NORAD) Tracking and Keplerian Element Data

This shows tracking and keplerian element data for the satellite.

Feedback or suggestion? Click here.




ElementValue
Catalog53936
NameSTARLINK-4791
Epoch Orbit130
Epoch Day324.91667824
Epoch Year2022
RAAN331.1209
Inclination53.2151
Eccentricity0.0004036
Argument of Perigee0.5971
Mean Anonmoly26.1172
Mean Motion15.7316473
Decay Rate-9.158E-05
L11 53936U 22119BC 22324.91667824 -.00009158 00000+0 -60933-4 0 9996
L22 53936 53.2151 331.1209 0004036 0.5971 26.1172 15.73164730 1309



Live tracking and technical data element details for STARLINK-4791 (NORAD 53936). STARLINK-4791 can be tracked NOW for your location showing map with azimuth and elevation plus other details from your city location.







IsCatalogInMostPopularTable: catalog: 53936, numindb: 1
Update: records affected: 1



GetName: 53936 STARLINK-4791

Hit Count: updated at: Fri, 09 Dec 2022 19:15:01 GMT